FW5929 Weather Reports


Display with metric or nautical units.
time (UTC)temp
F
wind
direction
speed
MPH
gust
MPH
rain 1hr
in
rain 24hr
in
rain mn
in
humidity
%
barometer
mb
20260505083320 55 66 4.0 11.0 0.00 0.47 0.00 91 1009.1
20260505082834 55 65 5.0 9.0 0.00 0.47 0.00 91 1009.1
20260505082331 55 109 5.0 9.0 0.00 0.47 0.00 92 1009.2
20260505081826 55 109 4.0 12.0 0.00 0.47 0.00 91 1009.2
20260505081324 55 97 6.0 12.0 0.00 0.47 0.00 91 1009.2
20260505080819 55 107 8.0 11.0 0.00 0.47 0.00 91 1009.2
20260505080317 56 48 4.0 11.0 0.00 0.47 0.00 91 1009.2
20260505075831 56 94 6.0 11.0 0.00 0.67 0.00 90 1009.2
20260505075350 56 85 7.0 12.0 0.00 0.67 0.00 90 1009.2
20260505074825 56 73 6.0 12.0 0.00 0.67 0.00 89 1009.2
20260505074322 57 34 6.0 10.0 0.00 0.67 0.00 90 1009.2
20260505073818 57 60 5.0 11.0 0.00 0.67 0.00 90 1009.3
20260505073316 57 43 6.0 12.0 0.00 0.67 0.00 90 1009.4
20260505072832 56 64 7.0 11.0 0.00 0.67 0.00 91 1009.4
20260505072330 56 74 6.0 13.0 0.00 0.67 0.00 92 1009.3
20260505071826 57 67 7.0 11.0 0.00 0.67 0.00 93 1009.4
20260505071323 57 65 2.0 10.0 0.00 0.67 0.00 94 1009.3
20260505070819 56 26 6.0 10.0 0.00 0.67 0.00 94 1009.4
20260505070314 55 333 4.0 6.0 0.00 0.67 0.00 95 1009.3
20260505065829 55 69 3.0 8.0 0.00 0.91 0.00 95 1009.4
20260505065328 55 30 5.0 6.0 0.00 0.91 0.00 94 1009.5
20260505064824 54 57 4.0 6.0 0.00 0.91 0.00 95 1009.6
20260505064336 55 86 3.0 7.0 0.00 0.91 0.00 95 1009.6
20260505063829 54 34 2.0 4.0 0.00 0.91 0.00 95 1009.6
20260505063326 54 64 1.0 4.0 0.00 0.91 0.00 95 1009.7
20260505062822 54 64 3.0 5.0 0.00 0.91 0.00 95 1009.7
20260505062339 54 44 3.0 5.0 0.00 0.91 0.00 95 1009.7
20260505061854 54 50 1.0 3.0 0.00 0.91 0.00 95 1009.7
20260505061330 54 50 2.0 5.0 0.00 0.91 0.00 95 1009.7
20260505060823 53 44 2.0 6.0 0.00 0.91 0.00 95 1009.8
20260505060314 53 38 3.0 8.0 0.00 0.91 0.00 95 1009.8
20260505055854 52 42 4.0 8.0 0.00 1.02 0.00 95 1009.8
20260505055328 52 56 1.0 9.0 0.00 1.02 0.00 95 1009.7
20260505054822 52 9 1.0 9.0 0.00 1.02 0.00 95 1009.7
20260505054320 51 43 5.0 9.0 0.00 1.02 0.00 95 1009.7
20260505053815 51 54 4.0 7.0 0.00 1.02 0.00 95 1009.6
20260505053331 51 39 2.0 5.0 0.00 1.02 0.00 95 1009.6
20260505052825 51 25 3.0 8.0 0.00 1.02 0.00 95 1009.7
20260505052344 51 355 4.0 7.0 0.00 1.02 0.00 95 1009.7
20260505051816 51 23 3.0 4.0 0.00 1.02 0.00 95 1009.7
20260505051333 51 25 2.0 4.0 0.00 1.02 0.00 95 1009.7
20260505050829 51 355 2.0 4.0 0.00 1.02 0.00 95 1009.8
20260505050347 51 19 1.0 3.0 0.00 1.02 0.00 95 1009.8
20260505041323 51 36 2.0 4.0 0.00 1.06 0.00 95 1009.8
20260505040820 51 36 3.0 5.0 0.00 1.06 0.00 95 1009.7
20260505040318 52 30 4.0 6.0 0.00 1.06 0.00 95 1009.8
20260505035831 52 29 4.0 6.0 0.00 1.10 0.00 95 1009.9
20260505035329 51 32 4.0 6.0 0.00 1.10 0.00 95 1010.0
20260505034824 51 34 3.0 5.0 0.00 1.10 0.00 95 1010.1
20260505034324 50 59 4.0 4.0 0.00 1.10 0.00 95 1010.2
20260505033839 50 28 1.0 3.0 0.00 1.10 0.00 95 1010.1
20260505033337 50 28 2.0 3.0 0.00 1.10 0.00 94 1010.1
20260505032833 50 28 2.0 2.0 0.00 1.10 0.00 95 1010.1
20260505032331 50 28 0.0 2.0 0.00 1.10 0.00 95 1010.1
20260505031827 50 28 1.0 2.0 0.00 1.10 0.00 95 1010.1
20260505031325 50 28 2.0 4.0 0.00 1.10 0.00 94 1010.2
20260505030818 50 28 2.0 4.0 0.00 1.10 0.00 94 1010.2
20260505030317 50 28 2.0 4.0 0.00 1.10 0.00 94 1010.2
20260505025833 51 28 1.0 2.0 0.00 1.10 0.00 95 1010.2
20260505025330 51 28 1.0 4.0 0.00 1.10 0.00 95 1010.3
20260505024825 51 28 3.0 4.0 0.00 1.10 0.00 95 1010.3
20260505024322 51 28 3.0 4.0 0.00 1.10 0.00 95 1010.4
20260505023817 51 28 2.0 4.0 0.00 1.10 0.00 95 1010.5
20260505023315 51 28 2.0 3.0 0.00 1.10 0.00 95 1010.6
20260505022830 51 28 1.0 3.0 0.00 1.10 0.00 95 1010.6
20260505022322 50 28 2.0 3.0 0.00 1.10 0.00 95 1010.5
20260505021837 50 28 2.0 4.0 0.00 1.10 0.00 95 1010.5
20260505021333 50 351 1.0 3.0 0.00 1.10 0.00 95 1010.6
20260505020827 50 348 1.0 2.0 0.00 1.10 0.00 95 1010.7
20260505020325 50 348 1.0 2.0 0.00 1.10 0.00 95 1010.8
20260505015820 50 348 0.0 1.0 0.00 1.10 0.00 95 1010.8
20260505015337 50 348 1.0 3.0 0.00 1.10 0.00 94 1010.8
20260505014833 51 348 1.0 3.0 0.00 1.10 0.00 95 1010.9
20260505014351 50 347 2.0 3.0 0.00 1.10 0.00 95 1010.8
20260505013847 50 348 0.0 2.0 0.00 1.10 0.00 95 1010.9
20260505013325 50 348 1.0 4.0 0.00 1.10 0.00 95 1010.9
20260505012820 49 348 3.0 4.0 0.00 1.10 0.00 95 1011.0
20260505012317 49 21 1.0 2.0 0.00 1.10 0.00 95 1011.0
20260505011833 49 21 0.0 1.0 0.00 1.10 0.00 94 1011.2
20260505011330 49 21 0.0 1.0 0.00 1.10 0.00 95 1011.1
20260505010825 49 20 0.0 0.0 0.00 1.10 0.00 94 1011.2
20260505010324 49 20 0.0 0.0 0.00 1.10 0.00 95 1011.3
20260505005817 49 20 0.0 0.0 0.00 1.10 0.00 94 1011.3
20260505005315 49 20 0.0 0.0 0.00 1.10 0.00 95 1011.3
20260505004830 48 20 0.0 0.0 0.00 1.10 0.00 94 1011.3
20260505004329 48 20 0.0 2.0 0.00 1.10 0.00 94 1011.2
20260505003823 49 20 0.0 2.0 0.00 1.10 0.00 94 1011.3
20260505003341 48 20 0.0 2.0 0.00 1.10 0.00 94 1011.3
20260505002815 49 20 0.0 2.0 0.00 1.10 0.00 94 1011.3
20260505002312 50 20 1.0 2.0 0.00 1.10 0.00 94 1011.3
20260505001829 49 20 1.0 2.0 0.00 1.10 0.00 94 1011.4
20260505001326 50 20 1.0 2.0 0.00 1.10 0.00 94 1011.3
20260505000823 50 20 1.0 2.0 0.00 1.10 0.00 94 1011.2
20260505000320 50 20 0.0 2.0 0.00 1.10 0.00 94 1011.2
20260504235815 50 20 1.0 2.0 0.00 1.10 0.00 94 1011.4
20260504235331 50 20 0.0 2.0 0.00 1.10 0.00 94 1011.3
20260504234826 50 20 0.0 3.0 0.00 1.10 0.00 94 1011.3
20260504234327 50 20 2.0 3.0 0.00 1.10 0.00 94 1011.4
20260504233820 50 9 1.0 3.0 0.00 1.10 0.00 94 1011.4
20260504233337 50 9 1.0 3.0 0.00 1.10 0.00 94 1011.4
20260504232826 50 9 2.0 3.0 0.00 1.10 0.00 94 1011.5
20260504232326 50 9 2.0 3.0 0.00 1.10 0.00 94 1011.6
20260504231820 50 9 2.0 3.0 0.00 1.10 0.00 94 1011.6
20260504231316 50 351 1.0 2.0 0.00 1.10 0.00 94 1011.7
20260504230830 50 351 1.0 2.0 0.00 1.10 0.00 94 1011.6
20260504230327 51 17 1.0 2.0 0.00 1.10 0.00 94 1011.7
20260504225941 51 17 1.0 1.0 0.00 1.10 0.00 94 1011.7
20260504225325 51 17 0.0 1.0 0.00 1.10 0.00 94 1011.7
20260504224820 51 17 0.0 2.0 0.00 1.10 0.00 94 1011.8
20260504224315 51 17 0.0 2.0 0.00 1.10 0.00 93 1011.9
20260504223900 51 17 1.0 2.0 0.00 1.10 0.00 94 1011.9
20260504223357 51 17 2.0 2.0 0.00 1.10 0.00 93 1011.9
20260504222850 51 17 0.0 2.0 0.00 1.10 0.00 93 1012.0
20260504222328 51 17 0.0 0.0 0.00 1.10 0.00 94 1012.0
20260504221825 51 17 0.0 0.0 0.00 1.10 0.00 93 1012.0
20260504221322 52 17 0.0 0.0 0.00 1.10 0.00 93 1012.0
20260504220817 52 16 0.0 0.0 0.00 1.10 0.00 93 1012.2
20260504220335 52 16 0.0 0.0 0.00 1.10 0.00 93 1012.3
20260504215822 52 16 0.0 1.0 0.00 1.10 0.22 93 1012.3
20260504215320 52 17 0.0 1.0 0.00 1.10 0.22 93 1012.2
20260504214814 52 16 0.0 1.0 0.00 1.10 0.22 93 1012.3
20260504214332 52 16 1.0 3.0 0.00 1.10 0.22 93 1012.3
20260504213827 53 16 1.0 5.0 0.00 1.10 0.22 93 1012.3
20260504213327 53 341 2.0 5.0 0.00 1.10 0.22 93 1012.3
20260504212824 53 335 2.0 4.0 0.00 1.10 0.22 93 1012.4
20260504212323 53 30 1.0 2.0 0.00 1.10 0.22 93 1012.4
20260504211838 53 30 1.0 1.0 0.00 1.10 0.22 93 1012.4
20260504211335 53 30 0.0 1.0 0.00 1.10 0.22 93 1012.4
20260504210847 54 30 0.0 0.0 0.00 1.10 0.22 93 1012.5
20260504210326 54 30 0.0 0.0 0.00 1.10 0.22 92 1012.5
20260504205842 54 30 0.0 0.0 0.00 1.10 0.22 92 1012.5
20260504205318 54 30 0.0 0.0 0.00 1.10 0.22 92 1012.6
20260504204835 55 30 0.0 0.0 0.00 1.10 0.22 92 1012.7
20260504204352 55 30 0.0 0.0 0.00 1.10 0.22 92 1012.7
20260504203848 55 30 0.0 0.0 0.00 1.10 0.22 92 1012.7
20260504203325 55 30 0.0 0.0 0.00 1.10 0.22 92 1012.7
20260504202840 56 30 0.0 0.0 0.00 1.10 0.22 92 1012.7
20260504202332 56 30 0.0 0.0 0.00 1.10 0.22 92 1012.6
20260504201827 56 30 0.0 0.0 0.00 1.10 0.22 91 1012.6
20260504201327 56 30 0.0 0.0 0.00 1.10 0.22 91 1012.5
20260504200823 56 30 0.0 1.0 0.00 1.10 0.22 91 1012.4
20260504200341 56 30 0.0 2.0 0.00 1.10 0.22 91 1012.3
20260504195815 56 30 1.0 2.0 0.00 1.14 0.22 91 1012.4
20260504195332 56 29 0.0 2.0 0.00 1.14 0.22 91 1012.4
20260504194828 56 29 1.0 3.0 0.00 1.14 0.22 91 1012.3
20260504194326 56 29 1.0 4.0 0.00 1.14 0.22 91 1012.4
20260504193821 56 329 2.0 4.0 0.00 1.14 0.22 90 1012.4
20260504193318 57 345 0.0 1.0 0.00 1.14 0.22 90 1012.4
20260504192814 57 345 0.0 2.0 0.00 1.14 0.22 90 1012.4
20260504192333 57 345 1.0 3.0 0.00 1.14 0.22 90 1012.4
20260504191848 57 345 1.0 3.0 0.00 1.14 0.22 90 1012.5
20260504191325 57 345 0.0 3.0 0.00 1.14 0.22 90 1012.5
20260504190819 57 345 2.0 3.0 0.00 1.14 0.22 90 1012.5
20260504190335 57 340 1.0 4.0 0.00 1.14 0.22 89 1012.5
20260504185852 58 333 2.0 4.0 0.00 1.22 0.22 89 1012.5
20260504185329 58 314 3.0 5.0 0.00 1.22 0.22 88 1012.4
20260504184824 58 293 4.0 5.0 0.00 1.22 0.22 88 1012.3
20260504184338 58 304 3.0 5.0 0.00 1.22 0.22 89 1012.3
20260504183831 58 325 2.0 4.0 0.00 1.22 0.22 89 1012.3
20260504183330 58 302 2.0 5.0 0.00 1.22 0.22 89 1012.2
20260504182826 58 314 3.0 5.0 0.00 1.22 0.22 90 1012.2
20260504182343 58 312 3.0 5.0 0.00 1.22 0.22 91 1012.2
20260504181817 58 215 0.0 1.0 0.00 1.22 0.22 91 1012.1
20260504181338 58 215 0.0 0.0 0.00 1.22 0.22 91 1012.1
20260504180835 58 214 0.0 1.0 0.00 1.22 0.22 91 1012.1
20260504180331 58 214 0.0 1.0 0.00 1.22 0.22 90 1012.1
20260504175826 58 214 0.0 0.0 0.04 1.22 0.22 90 1012.1
20260504175324 59 214 0.0 0.0 0.04 1.22 0.22 90 1012.0
20260504174818 59 214 0.0 0.0 0.04 1.22 0.22 90 1012.1
20260504174333 59 214 0.0 1.0 0.04 1.22 0.22 89 1012.0
20260504173828 59 214 1.0 1.0 0.04 1.22 0.22 89 1012.1
20260504173347 59 213 0.0 1.0 0.04 1.22 0.22 88 1012.0
20260504172823 59 213 1.0 3.0 0.04 1.22 0.22 87 1012.0
20260504172321 59 213 2.0 3.0 0.04 1.22 0.22 87 1012.0
20260504171818 59 213 0.0 2.0 0.04 1.22 0.22 86 1012.0
20260504171334 59 213 1.0 5.0 0.04 1.22 0.22 85 1012.0
20260504170828 60 213 2.0 5.0 0.04 1.22 0.22 86 1011.9
20260504170326 60 234 3.0 4.0 0.04 1.22 0.22 85 1011.9
20260504160326 62 133 2.0 5.0 0.00 1.18 0.21 82 1012.1
20260504150823 61 279 3.0 4.0 0.00 1.18 0.21 84 1012.3
20260504150320 61 271 1.0 4.0 0.00 1.18 0.21 84 1012.3
20260504141323 61 184 2.0 4.0 0.00 1.18 0.21 82 1012.7
20260504140817 61 144 1.0 4.0 0.00 1.18 0.21 82 1012.7
20260504140336 61 144 1.0 7.0 0.00 1.18 0.21 81 1012.8
20260504130817 61 121 4.0 7.0 0.00 1.18 0.21 80 1013.0
20260504130316 61 95 3.0 8.0 0.00 1.18 0.21 81 1013.0
20260504110332 58 182 3.0 7.0 0.04 1.18 0.21 89 1013.9
20260504100316 58 172 4.0 7.0 0.16 1.14 0.20 91 1013.9